date,batt_volt,AirTemp_C,Solar_kW,RH,Manual_BP,StationID,WS_ms,PTemp,WS_15min_max,Prog_Sig,Solar_Raw,Bar_mbar,Solar_MJ,Max_WS_2min,Pressure_Raw,Rain_mm,WD_15min_ave,Max_AirTemp_1min,WindDir,WS_15min_med,WS_15min_ave,Elevation_Correction
2020-03-01T00:00:25Z,13.29604,-1.011208,0.0,85.78214,0,1156,1.1564,1.755215,2.548,43690,0.0,1006.436,0.0,1.411,1004.635,0,91.2737255814,-0.909,92.46621,1.176,1.11043332857,1.80078
2020-03-01T00:15:26Z,13.29051,-0.9094086,0.0,85.37494,0,1156,0.0,1.755215,1.4112,43690,0.0,1006.436,0.0,1.352,1004.635,0,92.3574712898,-0.909,74.49336,0.0,0.0978833327381,1.80078
2020-03-01T00:30:24Z,13.28498,-0.9433403,0.0,85.13741,0,1156,0.0,1.820732,1.0976,43690,0.0,1006.436,0.0,0.0,1004.635,0,92.0417840528,-0.8750001,131.3994,0.0,0.0551833315476,1.80078
2020-03-01T00:45:28Z,13.29051,-0.8754768,0.0,85.06954,0,1156,1.3328,1.883991,1.8424,43690,0.0,1006.436,0.0,1.842,1004.635,0,99.5547916682,-0.8420001,92.58667,0.0196,0.357323072189,1.80078
2020-03-01T01:00:27Z,13.29051,-0.9094086,0.0,86.46078,0,1156,0.3528,1.883991,3.4888,43690,0.0,1005.947,0.0,2.078,1004.147,0,98.4006827069,-0.808,78.20358,1.0192,1.0655166619,1.80078
2020-03-01T01:15:26Z,13.296,-1.045139,0.0,87.3091,0,1156,1.4308,1.841064,4.41,43690,0.0,1005.947,0.0,3.332,1004.147,0,101.771259808,-0.8420001,96.75464,1.4602,1.52109999702,1.80078
2020-03-01T01:30:25Z,13.30709,-0.9433403,0.0,88.0217,0,1156,0.0,1.841064,3.626,43690,0.0,1005.947,0.0,2.293,1004.147,0,103.57498283,-0.9770001,62.97725,0.588,0.81561666369,1.80078
2020-03-01T01:45:28Z,13.31239,-1.214806,0.0,88.53069,0,1156,0.0,1.798138,2.7244,43690,0.0,1005.947,0.0,0.9410001,1004.147,0,86.4589048601,-1.079,82.80521,0.784,0.81403786568,1.80078
2020-03-01T02:00:26Z,13.30709,-1.384468,0.0,88.49676,0,1156,0.0196,1.734879,2.6264,43690,0.0,1006.192,0.0,2.489,1004.391,0,89.1235976055,-1.283,97.38103,1.2544,1.16969999821,1.80078
2020-03-01T02:15:30Z,13.31261,-1.4184,0.0,88.05562,0,1156,0.0,1.628696,2.254,43690,0.0,1006.192,0.0,1.842,1004.391,0,81.9428868273,-1.384,84.90123,0.2548,0.578721889941,1.80078
2020-03-01T02:30:31Z,13.30156,-1.486267,0.0,87.9199,0,1156,0.0,1.542843,1.4308,43690,0.0,1006.192,0.0,1.019,1004.391,0,92.7847722522,-1.486,74.01152,0.0,0.162714791716,1.80078
2020-03-01T02:45:31Z,13.30156,-1.689861,0.0,87.9199,0,1156,1.4112,1.522511,2.254,43690,0.0,1006.192,0.0,1.0,1004.391,0,81.5917273599,-1.588,97.74242,0.0,0.205742008284,1.80078
2020-03-01T03:00:30Z,13.29051,-1.757729,0.0,88.2253,0,1156,0.0,1.522511,1.8424,43690,0.0,1005.947,0.0,1.588,1004.147,0,80.5437228523,-1.52,27.56158,0.0,0.349204726627,1.80078
2020-03-01T03:15:29Z,13.29051,-1.757729,0.0,88.29316,0,1156,1.372,1.522511,2.1756,43690,0.0,1005.947,0.0,1.235,1004.147,0,58.3012500128,-1.588,52.42482,0.1372,0.581853252071,1.80078
2020-03-01T03:30:28Z,13.29604,-1.689861,0.0,88.39496,0,1156,0.0,1.522511,2.156,43690,0.0,1005.947,0.0,2.156,1004.147,0,55.5314121265,-1.622,53.21987,0.0,0.418094672781,1.80078
2020-03-01T03:45:28Z,13.30156,-1.859528,0.0,88.39496,0,1156,1.3328,1.479584,2.4696,43690,0.0,1005.947,0.0,0.0,1004.147,0,54.2930625047,-1.69,58.56836,1.2936,1.10734200947,1.80078
2020-03-01T04:00:28Z,13.30156,-1.825596,0.0,88.46282,0,1156,0.0,1.436657,2.7048,43690,0.0,1005.459,0.0,1.411,1003.658,0,58.2598286733,-1.622,71.26499,1.4112,1.36562129704,1.80078
2020-03-01T04:15:33Z,13.29604,-1.825596,0.0,88.80215,0,1156,2.6264,1.416325,4.3708,43690,0.0,1005.459,0.0,3.665,1003.658,0,48.6424253806,-1.792,51.2684,1.9992,2.03828470412,1.80078
2020-03-01T04:30:31Z,13.30156,-1.859528,0.0,89.37901,0,1156,0.0196,1.393734,4.4492,43690,0.0,1005.459,0.0,4.332,1003.658,0,52.7280160925,-1.758,81.76923,2.6264,2.6948260355,1.80078
2020-03-01T04:45:34Z,13.30709,-2.02919,0.0,89.9898,0,1156,2.4696,1.373402,3.7828,43690,0.0,1005.459,0.0,3.273,1003.658,0,65.0852398356,-1.893,56.97827,1.9502,1.90638823353,1.80078
2020-03-01T05:00:31Z,13.31261,-1.995258,0.0,91.14352,0,1156,3.2928,1.350807,4.4688,43690,0.0,1004.563,0.0,3.959,1002.762,0,61.1403557431,-2.029,81.14284,2.646,2.66652781065,1.80078
2020-03-01T05:15:30Z,13.31261,-2.164921,0.0,91.5507,0,1156,0.882,1.350807,4.1944,43690,0.0,1004.563,0.0,3.136,1002.762,0,48.7937538715,-2.063,23.65863,2.4108,2.42897068047,1.80078
2020-03-01T05:30:31Z,13.32367,-2.232788,0.0,91.82218,0,1156,1.7836,1.267216,2.7244,43690,0.0,1004.563,0.0,2.587,1002.762,0,41.3990970525,-2.063,46.01627,1.3916,1.34288993314,1.80078
2020-03-01T05:45:34Z,13.31261,-2.164921,0.0,91.99184,0,1156,0.0,1.267216,2.6264,43690,0.0,1004.563,0.0,1.607,1002.762,0,38.5941327572,-2.131,26.47743,0.7644,0.835651762353,1.80078
2020-03-01T06:00:32Z,13.31261,-2.198856,0.0,92.22936,0,1156,0.0,1.267216,1.7836,43690,0.0,1004.237,0.0,1.47,1002.436,0,12.7201036129,-2.199,14.64811,0.1764,0.445697036686,1.80078
2020-03-01T06:15:35Z,13.31261,-2.300655,0.0,92.3651,0,1156,0.0,1.244621,1.9404,43690,0.0,1004.237,0.0,1.45,1002.436,0,5.82217365494,-2.233,349.531,0.0,0.324091761765,1.80078
2020-03-01T06:30:33Z,13.31261,-2.232788,0.0,92.43296,0,1156,0.4116,1.267216,2.1952,43690,0.0,1004.237,0.0,0.529,1002.436,0,7.38693706239,-2.233,27.27247,0.0,0.226849702959,1.80078
2020-03-01T06:45:36Z,13.31814,-2.300655,0.0,92.43296,0,1156,0.2352,1.224289,2.0972,43690,0.0,1004.237,0.0,0.137,1002.436,0,355.404931811,-2.199,25.75466,0.0,0.140658821176,1.80078
2020-03-01T07:00:33Z,13.31261,-2.26672,0.0,92.50082,0,1156,1.0388,1.224289,2.7048,43690,0.0,1003.911,0.0,0.7640001,1002.111,0,340.188095181,-2.199,322.3067,0.0,0.243434318935,1.80078
2020-03-01T07:15:37Z,13.31261,-2.26672,0.0,92.60262,0,1156,0.0,1.224289,2.156,43690,0.0,1003.911,0.0,1.137,1002.111,0,334.640938952,-2.233,352.9039,0.0,0.330548232941,1.80078
2020-03-01T07:30:34Z,13.31261,-2.368519,0.0,92.63656,0,1156,0.0,1.201698,1.9992,43690,0.0,1003.911,0.0,0.0,1002.111,0,341.702907913,-2.335,317.7773,0.0,0.0824591715976,1.80078
2020-03-01T07:45:37Z,13.31814,-2.436386,0.0,92.63656,0,1156,0.0,1.181362,2.1756,43690,0.0,1003.911,0.0,1.686,1002.111,0,352.283025111,-2.335,53.09941,0.0,0.232778822353,1.80078
2020-03-01T08:00:35Z,13.32367,-2.402451,0.0,92.63656,0,1156,0.0,1.118103,2.8224,43690,0.0,1004.319,0.0,2.176,1002.518,0,13.2580016326,-2.402,0.1204615,0.0,0.504728991716,1.80078
2020-03-01T08:15:37Z,13.33472,-2.50425,0.0,92.60262,0,1156,0.2352,1.011921,2.3716,43690,0.0,1004.319,0.0,1.47,1002.518,0,21.2573491242,-2.436,4.432982,0.0294,0.429124702353,1.80078
2020-03-01T08:30:35Z,13.33472,-2.50425,0.0,92.4669,0,1156,0.0,0.8831406,2.9008,43690,0.0,1004.319,0.0,1.0,1002.518,0,17.900120847,-2.436,56.42414,0.4116,0.657005914201,1.80078
2020-03-01T08:45:38Z,13.34025,-2.538185,0.0,92.33116,0,1156,0.0196,0.7769585,2.9596,43690,0.0,1004.319,0.0,2.274,1002.518,0,20.9638584704,-2.504,10.23922,0.3528,0.625585878824,1.80078
2020-03-01T09:00:36Z,13.34054,-2.638313,0.0,92.16562,0,1156,1.1368,0.6481819,2.4892,43690,0.0,1004.091,0.0,2.45,1002.291,0,5.10484941076,-2.605,18.04593,0.0,0.437578697633,1.80078
2020-03-01T09:15:38Z,13.35837,-2.703426,0.0,92.00274,0,1156,2.5284,0.4584046,2.9204,43690,0.0,1004.091,0.0,2.92,1002.291,0,6.51298388715,-2.669,11.78253,0.245,0.699028234706,1.80078
2020-03-01T09:30:40Z,13.35908,-2.939133,0.0,91.90552,0,1156,1.4896,0.2867012,3.1164,43690,0.0,1004.091,0.0,1.96,1002.291,0,5.50638349822,-2.837,20.86744,0.4116,0.798411762941,1.80078
2020-03-01T09:45:37Z,13.35909,-2.973022,0.0,91.63414,0,1156,0.196,0.1375885,3.2732,43690,0.0,1004.091,0.0,3.136,1002.291,0,7.09358706442,-2.871,42.02409,0.8624,0.976288756213,1.80078
2020-03-01T10:00:39Z,13.35909,-3.243198,0.0,91.33199,0,1156,0.8231999,-0.01152039,3.2732,43690,0.0,1004.422,0.0,1.744,1002.621,0,33.0905892323,-3.142,354.5188,0.7252,0.867472936471,1.80078
2020-03-01T10:15:36Z,13.3712,-3.274536,0.0,91.03299,0,1156,0.0196,-0.2012978,4.3316,43690,0.0,1004.422,0.0,4.332,1002.621,0,24.1248851245,-3.105,29.15974,0.0588,0.587188162722,1.80078
2020-03-01T10:30:40Z,13.36127,-3.272633,0.0,90.93587,0,1156,0.0,-0.2871513,2.3128,43690,0.0,1004.422,0.0,0.588,1002.621,0,32.4713773804,-3.103,0.6507058,0.0,0.185277646471,1.80078
2020-03-01T10:45:37Z,13.35583,-3.102524,0.0004828241,90.80106,0,1156,1.7248,-0.2668152,1.96,43690,0.03379768,1004.422,2.414121e-06,1.646,1002.621,0,40.7370791974,-3.136,20.8228,0.0,0.119223667456,1.80078
2020-03-01T11:00:41Z,13.3503,-3.102524,0.00241412,90.63134,0,1156,0.0,-0.1809654,1.9796,43690,0.1689884,1004.652,1.20706e-05,1.98,1002.851,0,17.3951017516,-2.967,334.1289,0.0,0.109183529412,1.80078
2020-03-01T11:15:38Z,13.36112,-3.069561,0.00820801,90.49316,0,1156,0.7448,-0.1809654,3.0184,43690,0.5745606,1004.652,4.104005e-05,1.686,1002.851,0,334.6330754,-3.069,286.5951,0.0392,0.475039049112,1.80078
2020-03-01T11:30:42Z,13.36124,-3.340729,0.01931296,90.22254,0,1156,0.2156,-0.158371,3.7828,43690,1.351907,1004.652,9.656482e-05,3.508,1002.851,0,319.476534574,-3.273,283.0554,0.5096,0.859171762353,1.80078
2020-03-01T11:45:39Z,13.36117,-3.205662,0.03138357,90.01714,0,1156,0.0392,-0.1177063,3.1556,43690,2.19685,1004.652,0.0001569178,2.293,1002.851,0,314.130801097,-3.239,299.8956,0.8231999,0.977912421893,1.80078
2020-03-01T12:00:42Z,13.35418,-3.206604,0.05262782,89.5057,0,1156,0.0,-0.03185272,5.488,43690,3.683948,1005.194,0.0002631391,2.136,1003.394,0,325.71155384,-3.137,6.193441,0.441,0.965934115294,1.80078
2020-03-01T12:15:39Z,13.35485,-3.107285,0.06469842,88.85476,0,1156,1.7248,0.1172562,4.704,43690,4.52889,1005.194,0.0003234921,2.881,1003.394,0,322.649760947,-3.073,293.8914,1.2152,1.26251833964,1.80078
2020-03-01T12:30:43Z,13.34232,-3.108723,0.09125375,88.34222,0,1156,1.666,0.3296242,4.4296,43690,6.387762,1005.194,0.0004562688,4.43,1003.394,0,303.905446689,-2.871,273.8558,1.9894,1.98997646882,1.80078
2020-03-01T12:45:42Z,13.34804,-2.939068,0.1163456,87.42579,0,1156,0.6664,0.541996,5.0764,43690,8.144189,1005.194,0.0005817278,4.292,1003.394,0,309.78547822,-2.803,302.4097,2.9008,2.74423195207,1.80078
2020-03-01T13:00:42Z,13.33007,-2.332375,0.2548884,86.05865,0,1156,2.9008,0.9260674,4.9784,43690,17.84219,1005.007,0.001274442,3.43,1003.206,0,310.391965422,-2.298,298.0391,1.8424,1.83010650651,1.80078
2020-03-01T13:15:40Z,13.29607,-2.130917,0.1887524,83.54274,0,1156,3.7436,1.691956,5.2136,43690,13.21267,1005.007,0.0009437619,5.214,1003.206,0,314.8235187,-2.063,330.3541,1.9992,2.07470058994,1.80078
2020-03-01T13:30:40Z,13.26796,-1.69091,0.4884606,82.89558,0,1156,1.2348,2.417175,5.0764,43690,34.19224,1005.007,0.002442303,3.646,1003.206,0,305.96236286,-1.793,295.1948,1.9796,2.00673846095,1.80078
2020-03-01T13:45:44Z,13.24204,-1.600063,0.145281,81.24368,0,1156,3.234,3.013615,5.5664,43690,10.16967,1005.007,0.000726405,4.136,1003.206,0,304.574667641,-1.566,296.2426,2.597,2.53093646882,1.80078
2020-03-01T14:00:43Z,13.23629,-1.73674,0.2118883,80.59709,0,1156,2.5088,3.334431,5.0764,43690,14.83218,1004.881,0.001059441,4.626,1003.08,0,310.36473884,-1.601,307.5545,2.7048,2.59346272012,1.80078
2020-03-01T14:15:43Z,13.23076,-1.26186,0.2669058,80.02038,0,1156,2.8028,3.63491,5.6448,43690,18.68341,1004.881,0.001334529,4.782,1003.08,0,307.466539142,-1.228,308.1805,3.0772,3.01967573905,1.80078
2020-03-01T14:30:42Z,13.21972,-1.22794,0.2832879,78.35823,0,1156,4.6452,3.892464,5.9192,43690,19.83015,1004.881,0.001416439,4.861,1003.08,0,302.145642324,-0.8890001,284.6263,3.7436,3.61985325444,1.80078
2020-03-01T14:45:41Z,13.23629,-1.397545,0.2962962,78.6296,0,1156,2.6852,3.978317,5.5076,43690,20.74074,1004.881,0.001481481,3.959,1003.08,0,326.032109806,-1.33,301.6537,2.1756,2.0648426,1.80078
2020-03-01T15:00:46Z,13.23629,-0.8208847,0.6866265,76.22119,0,1156,0.4116,4.084499,5.4096,43690,48.06386,1004.881,0.003433132,4.586,1003.08,0,320.341956571,-0.583,23.98779,2.3912,2.28074823235,1.80078
2020-03-01T15:15:45Z,13.21972,-0.92379,0.5524608,76.04936,0,1156,2.1756,4.32172,5.3312,43690,38.67226,1004.881,0.002762304,3.744,1003.08,0,316.192940319,-0.652,342.081,2.4892,2.39943431775,1.80078
2020-03-01T15:30:44Z,13.21855,-0.9951858,0.2948063,76.44943,0,1156,0.0,4.407574,6.1348,43690,20.63644,1004.881,0.001474032,5.449,1003.08,0,337.342118744,-1.131,335.1626,2.4892,2.55426272071,1.80078
2020-03-01T15:45:43Z,13.21248,-1.199379,0.2040967,76.99074,0,1156,3.4888,4.407574,5.7428,43690,14.28677,1004.881,0.001020483,5.743,1003.08,0,320.154872489,-1.165,314.7361,2.4304,2.41358342959,1.80078
2020-03-01T16:00:44Z,13.21946,-1.160885,0.2991488,77.23726,0,1156,1.8816,4.21328,7.8204,43690,20.94042,1005.601,0.001495744,3.528,1003.8,0,329.523368828,-1.093,340.4223,2.0384,2.18348638166,1.80078
2020-03-01T16:15:48Z,13.22523,-0.5495453,0.3647685,75.67839,0,1156,5.096,4.170353,5.684,43690,25.5338,1005.601,0.001823843,4.508,1003.8,0,332.654140843,-0.176,23.89144,1.6954,1.83594352824,1.80078
2020-03-01T16:30:45Z,13.21419,-0.956585,0.2938429,75.88194,0,1156,1.8032,4.21328,6.2132,43690,20.56901,1005.601,0.001469215,5.429,1003.8,0,338.920369796,-0.7870001,319.6204,2.3912,2.57177514615,1.80078
2020-03-01T16:45:44Z,13.22524,-1.160114,0.2002367,75.78018,0,1156,3.7436,4.127426,7.3304,43690,14.01657,1005.601,0.001001183,4.92,1003.8,0,331.423903923,-0.957,313.4548,2.6656,2.91912425917,1.80078
2020-03-01T17:00:48Z,13.23076,-0.7191391,0.3565781,75.71234,0,1156,3.6064,3.955723,7.761599,43690,24.96047,1004.555,0.00178289,5.272,1002.754,0,315.795349205,-0.6850001,316.7062,3.4594,3.39022352235,1.80078
2020-03-01T17:15:49Z,13.21971,-0.8887443,0.3223386,75.94978,0,1156,0.9604,4.084499,6.8992,43690,22.5637,1004.555,0.001611693,6.899,1002.754,0,315.254263821,-0.651,330.5064,2.6852,2.92967810533,1.80078
2020-03-01T17:30:49Z,13.23076,-1.160114,0.2219678,77.74761,0,1156,5.39,4.02124,6.0564,43690,15.53774,1004.555,0.001109839,5.704,1002.754,0,326.568925124,-0.8890001,310.9019,3.2144,3.09227692308,1.80078
2020-03-01T17:45:49Z,13.23628,-0.5156098,0.3276567,75.9837,0,1156,3.9788,3.912796,6.6052,43690,22.93597,1004.555,0.001638283,3.587,1002.754,0,317.559836412,-0.244,338.7191,1.8424,2.13094911183,1.80078
2020-03-01T18:00:48Z,13.23076,-0.8887443,0.3073975,77.71369,0,1156,3.8612,4.064167,7.0756,43690,21.51782,1004.474,0.001536987,7.076,1002.673,0,304.709683918,-0.617,299.9918,3.3124,3.34986035444,1.80078
2020-03-01T18:15:46Z,13.23076,-0.5834503,0.3078422,76.11939,0,1156,2.9008,4.064167,5.5664,43690,21.54896,1004.474,0.001539211,5.41,1002.673,0,338.464325909,-0.38,26.68521,1.9404,1.97519289822,1.80078
2020-03-01T18:30:50Z,13.23628,-0.990509,0.2253331,74.66078,0,1156,2.352,3.978317,7.252,43690,15.77332,1004.474,0.001126665,5.292,1002.673,0,334.345979763,-0.8890001,296.8368,3.0772,2.92212941,1.80078
2020-03-01T18:45:49Z,13.23628,-0.8887443,0.2118564,74.62686,0,1156,1.0976,3.78402,9.0356,43690,14.82995,1004.474,0.001059282,5.782,1002.673,0,318.63075386,-0.855,5.274423,3.1752,3.4218816497,1.80078
2020-03-01T19:00:49Z,13.24181,-1.363644,0.1626517,76.69606,0,1156,0.2548,3.612316,7.35,43690,11.38562,1004.474,0.0008132582,7.35,1002.673,0,324.355431436,-1.262,330.5786,2.7636,2.84037633077,1.80078
2020-03-01T19:15:49Z,13.24181,-1.533249,0.1587949,80.08818,0,1156,0.0,3.291504,7.4872,43690,11.11564,1004.474,0.0007939743,7.213,1002.673,0,325.418563986,-1.601,18.76153,3.2144,3.34197395148,1.80078
2020-03-01T19:30:49Z,13.24733,-1.60109,0.1660353,80.63093,0,1156,2.1168,3.036209,6.6836,43690,11.62247,1004.474,0.0008301766,4.528,1002.673,0,327.049713555,-1.465,297.4389,3.1556,3.04066745325,1.80078
2020-03-01T19:46:10Z,13.24733,-1.736774,0.1288704,80.9023,0,1156,4.9196,2.864506,8.82,43690,9.020931,1004.474,0.0006443522,5.449,1002.673,0,336.083831136,-1.771,324.7744,3.4986,3.40047899938,1.80078
2020-03-01T20:01:10Z,13.27495,-1.736774,0.1404516,80.46132,0,1156,3.332,2.586617,8.0752,43690,9.831609,1004.555,0.0007022577,6.448,1002.754,0,338.185760664,-1.567,26.25169,2.989,3.07913579383,1.80078
2020-03-01T20:16:06Z,13.27495,-1.498467,0.1153559,80.36135,0,1156,4.9588,2.374249,8.408401,43690,8.074914,1004.555,0.0005767795,6.546,1002.754,0,346.417572509,-1.465,328.009,2.842,2.88145290258,1.80078
2020-03-01T20:31:08Z,13.28206,-1.630676,0.05164471,79.96154,0,1156,4.2728,2.161877,7.5264,43690,3.61513,1004.555,0.0002582236,3.861,1002.754,0,349.251806723,-1.529,338.926,2.0678,2.49984690309,1.80078
2020-03-01T20:46:09Z,13.27907,-1.727283,0.02171974,80.71879,0,1156,3.92,2.0331,6.468,43690,1.520382,1004.555,0.0001085987,5.174,1002.754,0,340.962809652,-1.659,353.2812,2.4304,2.44489703432,1.80078
2020-03-01T21:01:10Z,13.28495,-1.757843,0.01496249,81.26883,0,1156,4.41,1.841064,6.5464,43690,1.047374,1005.782,7.481243e-05,6.017,1003.982,0,349.037562887,-1.86,337.4115,1.8816,2.14196686213,1.80078
2020-03-01T21:16:11Z,13.31261,-1.961327,0.01448022,80.72614,0,1156,3.9396,1.542843,7.7224,43690,1.013615,1005.782,7.240109e-05,7.722001,1003.982,0,351.993500214,-1.927,35.72887,3.0968,3.05435265562,1.80078
2020-03-01T21:31:07Z,13.31261,-2.164921,0.006275578,80.82794,0,1156,3.822,1.30788,7.6244,43690,0.4392904,1005.782,3.137789e-05,5.37,1003.982,0,1.20557439717,-2.131,343.291,1.7444,2.03349999583,1.80078
2020-03-01T21:46:10Z,13.31814,-2.198856,0.005310166,80.86188,0,1156,2.156,1.138439,9.0552,43690,0.3717116,1005.782,2.655083e-05,6.997,1003.982,0,2.3515743788,-2.199,27.65795,2.8616,3.09784378462,1.80078
2020-03-01T22:01:10Z,13.31261,-2.402451,0.003379197,79.94569,0,1156,4.7628,0.9893265,9.309999,43690,0.2365438,1006.925,1.689598e-05,9.309999,1005.124,0,0.484281528399,-2.369,16.76823,2.3912,2.94266742426,1.80078
2020-03-01T22:16:10Z,13.31814,-2.606049,0.0009654847,79.6403,0,1156,0.1764,0.8402176,7.4088,43690,0.06758394,1006.925,4.827424e-06,4.41,1005.124,0,2.71263483345,-2.504,262.1,3.43,3.39311952012,1.80078
2020-03-01T22:31:10Z,13.32919,-2.639763,0.0,80.52302,0,1156,1.274,0.6481819,7.742,43690,0.0,1006.925,0.0,4.92,1005.124,0,353.47453313,-2.606,289.8078,2.45,2.61225088462,1.80078
2020-03-01T22:46:10Z,13.35232,-2.840981,0.0,79.88341,0,1156,0.0392,0.4358101,8.3692,43690,0.0,1006.925,0.0,5.841,1005.124,0,349.481893628,-2.772,306.3308,3.0184,3.20528661783,1.80078
2020-03-01T23:01:13Z,13.35905,-2.871468,0.0,79.72114,0,1156,0.9211999,0.2234421,8.408401,43690,0.0,1007.412,0.0,8.41,1005.611,0,349.527040879,-2.838,345.0096,3.479,3.42234794315,1.80078
2020-03-01T23:16:41Z,13.36462,-3.006962,0.0,79.51806,0,1156,1.078,0.09692383,6.762,43690,0.0,1007.412,0.0,6.311,1005.611,0,350.81283521,-2.905,0.5301205,2.8616,2.83369271523,1.80078
2020-03-01T23:31:36Z,13.37567,-3.21109,0.0,79.61881,0,1156,3.2536,-0.1177063,7.7224,43690,0.0,1007.412,0.0,5.292,1005.611,0,340.989665512,-3.075,320.5739,3.8024,3.71315218113,1.80078
2020-03-01T23:46:38Z,13.38259,-3.240295,0.0,80.74916,0,1156,3.724,-0.2871513,7.252,43690,0.0,1007.412,0.0,4.861,1005.611,0,335.528197657,-3.241,352.5707,2.9596,3.13016666012,1.80078
2020-03-02T00:01:40Z,13.38315,-3.408798,0.0,81.46465,0,1156,6.7228,-0.4159279,6.6052,43690,0.0,1007.49,0.0,6.605,1005.689,0,347.040140264,-3.307,29.52244,3.3908,3.47465088521,1.80078
2020-03-02T00:16:40Z,13.38346,-3.408123,0.0,81.97531,0,1156,6.389599,-0.5627785,8.3496,43690,0.0,1007.49,0.0,6.017,1005.689,0,14.5809780781,-3.306,20.43714,3.6456,3.6935499869,1.80078
2020-03-02T00:31:40Z,13.38347,-3.272247,0.0,82.51864,0,1156,6.1152,-0.6282959,8.0164,43690,0.0,1007.49,0.0,8.17,1005.689,0,20.5862321117,-3.238,30.945,3.6554,3.76658331429,1.80078
2020-03-02T00:46:39Z,13.37241,-3.170414,0.0,82.82414,0,1156,2.94,-0.6282959,9.074799,43690,0.0,1007.49,0.0,8.55,1005.689,0,22.3961132123,-3.103,0.1446028,3.92,4.11294848503,1.80078
2020-03-02T01:01:41Z,13.36136,-3.068581,0.0,83.26542,0,1156,1.47,-0.5424461,7.7812,43690,0.0,1008.807,0.0,6.997,1007.006,0,24.0168585007,-3.001,14.07467,3.871,3.87391665417,1.80078
2020-03-02T01:16:43Z,13.35583,-3.00069,0.0,84.2498,0,1156,4.704,-0.4159279,5.6644,43690,0.0,1008.807,0.0,4.763,1007.006,0,26.2383642195,-2.967,43.18804,3.234,3.03053333214,1.80078
2020-03-02T01:31:42Z,13.36136,-3.068581,0.0,85.47179,0,1156,4.2532,-0.3074837,6.8992,43690,0.0,1008.807,0.0,6.723001,1007.006,0,28.9543310892,-2.967,25.667,3.2928,3.37589461018,1.80078
2020-03-02T01:46:39Z,13.35509,-2.933113,0.0,85.77658,0,1156,4.7628,-0.2238922,7.114799,43690,0.0,1008.807,0.0,4.077,1007.006,0,38.7981523893,-2.865,7.27828,3.4104,3.38974370659,1.80078
2020-03-02T02:01:40Z,13.36086,-2.934017,0.0,86.89461,0,1156,2.2148,-0.158371,6.5268,43690,0.0,1010.024,0.0,4.92,1008.223,0,40.8943562997,-2.833,90.01229,3.528,3.57548333333,1.80078
2020-03-02T02:16:41Z,13.37102,-2.731411,0.0,87.23158,0,1156,3.0968,-0.158371,5.096,43690,0.0,1010.024,0.0,4.234,1008.223,0,37.8882240431,-2.697,7.061005,2.8028,2.8958999994,1.80078
2020-03-02T02:31:43Z,13.37088,-2.800262,0.0,86.92383,0,1156,3.5084,-0.158371,5.8604,43690,0.0,1010.024,0.0,4.841,1008.223,0,39.9735324939,-2.665,62.17379,2.6852,2.76186035444,1.80078
2020-03-02T02:46:45Z,13.36609,-2.597328,0.0,87.024,0,1156,3.4104,-0.09511185,5.8604,43690,0.0,1010.024,0.0,3.842,1008.223,0,42.0587461795,-2.598,17.42279,2.842,2.93640473314,1.80078
2020-03-02T03:01:45Z,13.34892,-2.463367,0.0,87.01983,0,1156,2.5676,0.0314064,5.6252,43690,0.0,1010.606,0.0,4.175,1008.806,0,41.2294644261,-2.327,35.68729,2.8616,2.95936804734,1.80078
2020-03-02T03:16:44Z,13.34259,-2.361691,0.0,87.0195,0,1156,1.4504,0.1172562,3.8416,43690,0.0,1010.606,0.0,3.136,1008.806,0,47.8229171461,-2.294,46.41018,2.2932,2.26640946568,1.80078
2020-03-02T03:31:43Z,13.33699,-2.090599,0.0,86.8149,0,1156,3.5476,0.1375885,8.251599,43690,0.0,1010.606,0.0,5.645,1008.806,0,52.0054836743,-2.091,73.20484,3.2732,3.39462721302,1.80078
2020-03-02T03:46:43Z,13.33699,-1.988789,0.0,86.61126,0,1156,2.2344,0.160183,6.5268,43690,0.0,1010.606,0.0,4.802,1008.806,0,55.5004751275,-1.921,49.71086,3.3908,3.53403076331,1.80078
2020-03-02T04:01:43Z,13.32593,-1.954895,0.0,87.0863,0,1156,1.3916,0.3296242,3.2536,43690,0.0,1011.734,0.0,3.254,1009.933,0,60.285753633,-1.853,34.57828,1.764,1.75715739527,1.80078
2020-03-02T04:16:43Z,13.32593,-1.819111,0.0,87.05243,0,1156,0.0588,0.4787369,3.7044,43690,0.0,1011.734,0.0,3.606,1009.933,0,62.9044840867,-1.751,73.3012,1.6464,1.66495621243,1.80078
2020-03-02T04:31:43Z,13.31442,-1.75285,0.0,86.47182,0,1156,1.7052,0.6278458,4.8412,43690,0.0,1011.734,0.0,4.841,1009.933,0,59.5023726339,-1.617,69.85246,2.1364,2.18163076864,1.80078
2020-03-02T04:46:48Z,13.31824,-1.754421,0.0,85.34839,0,1156,1.9208,0.7566262,4.704,43690,0.0,1011.734,0.0,3.038,1009.933,0,66.472894617,-1.687,60.23594,2.8322,2.82297647059,1.80078
2020-03-02T05:01:46Z,13.33473,-1.757183,0.0,85.10469,0,1156,1.4896,0.7769585,3.5476,43690,0.0,1013.37,0.0,3.548,1011.569,0,67.0627971993,-1.621,49.91994,1.7836,1.8083029568,1.80078
2020-03-02T05:16:43Z,13.34582,-1.859432,0.0,85.06975,0,1156,1.5484,0.7340317,4.4884,43690,0.0,1013.37,0.0,2.705,1011.569,0,54.396916967,-1.69,34.18705,1.0192,1.14814553195,1.80078
2020-03-02T05:31:47Z,13.34578,-1.825058,0.0,84.35814,0,1156,0.0,0.7136994,3.136,43690,0.0,1013.37,0.0,3.136,1011.569,0,48.0712833395,-1.791,88.2754,1.2054,1.23848940765,1.80078
2020-03-02T05:46:46Z,13.32966,-1.824532,0.0,83.7485,0,1156,1.4308,0.7340317,3.8808,43690,0.0,1013.37,0.0,1.646,1011.569,0,47.3355575732,-1.757,80.51869,1.2544,1.28977277692,1.80078
2020-03-02T06:01:44Z,13.32369,-1.927212,0.0,83.91622,0,1156,2.2148,0.7972908,2.842,43690,0.0,1014.502,0.0,2.764,1012.701,0,50.0984538371,-1.825,57.21946,1.0388,1.05097751124,1.80078
2020-03-02T06:16:47Z,13.32368,-1.96125,0.0,83.88206,0,1156,2.842,0.8198814,4.4884,43690,0.0,1014.502,0.0,4.488,1012.701,0,49.8827416653,-1.961,35.10254,1.421,1.52487999588,1.80078
2020-03-02T06:31:45Z,13.32368,-2.130959,0.0,84.28915,0,1156,1.0388,0.8198814,3.3908,43690,0.0,1014.502,0.0,2.313,1012.701,0,54.7757004099,-2.097,41.00511,1.372,1.23259644734,1.80078
2020-03-02T06:46:48Z,13.31815,-2.198578,0.0,84.56118,0,1156,0.3528,0.8198814,4.5276,43690,0.0,1014.502,0.0,3.92,1012.701,0,41.9415715821,-2.097,26.50172,1.029,1.43633411176,1.80078
2020-03-02T07:01:46Z,13.31815,-2.266235,0.0,84.4259,0,1156,2.4696,0.7972908,5.0568,43690,0.0,1014.181,0.0,2.568,1012.38,0,55.1116770556,-2.198,72.10915,2.1168,2.15831952485,1.80078
2020-03-02T07:16:48Z,13.32368,-2.368423,0.0,84.01784,0,1156,0.7252,0.7566262,3.0576,43690,0.0,1014.181,0.0,3.038,1012.38,0,61.9797537085,-2.267,81.74534,1.2544,1.12561646882,1.80078